Change the Weather History Date:

Tuesday, March 5, 2013

  Actual Average Record
Temperature  
Mean Temperature 50 °F -  
Max Temperature 71 °F 72 °F 82 °F (2009)
Min Temperature 30 °F 38 °F 30 °F (1997)
Degree Days  
Heating Degree Days 14    
Moisture  
Dew Point 8 °F    
Average Humidity 17    
Maximum Humidity 34    
Minimum Humidity 11    
Precipitation  
Precipitation 0.00 in - - ()
Sea Level Pressure  
Sea Level Pressure 30.31 in    
Wind  
Wind Speed 7 mph ()    
Max Wind Speed 12 mph    
Max Gust Speed -    
Visibility 10.0 miles    
Events      
Averages and records for this station are not official NWS values.
T = Trace of Precipitation, MM = Missing Value Source: Averaged Metar Reports

Daily Weather History Graph

Daily Weather History Graph

Search for Another Location

Airport or City:

Trip Planner

Search our weather history database for the weather conditions in past years. The results will help you decide how hot, cold, wet, or windy it might be!

Date:

Astronomy

Mar. 05, 2013 Rise Set
Actual Time 7:08 AM CST 6:56 PM CST
Civil Twilight 6:45 AM CST 7:18 PM CST
Nautical Twilight 6:19 AM CST 7:44 PM CST
Astronomical Twilight 5:53 AM CST 8:10 PM CST
Moon 1:53 AM CST (3/5) 1:06 PM CST (3/5)
Length of Visible Light 12h 32m
Length of Day
11h 47m
Last Quarter, 40% of the Moon is Illuminated
Mar 5
Last Quarter
Mar 11
New
Mar 19
First Quarter
Mar 27
Full
Apr 2
Last Quarter

Hourly Weather History & Observations

Time (CST) Temp. Windchill Dew Point Humidity Pressure Visibility Wind Dir Wind Speed Gust Speed Precip Events Conditions
12:45 AM 42.8 °F 37.0 °F 1.4 °F 18% 30.28 in 10.0 mi South 10.4 mph - N/A   Clear
1:42 AM 42.8 °F 38.6 °F 3.2 °F 19% 30.28 in 10.0 mi SSW 6.9 mph - N/A   Clear
2:50 AM 42.8 °F 38.6 °F 5.0 °F 21% 30.28 in 10.0 mi South 6.9 mph - N/A   Clear
3:41 AM 35.6 °F 31.7 °F 3.2 °F 26% 30.28 in 10.0 mi SW 4.6 mph - N/A   Clear
4:40 AM 37.4 °F 32.8 °F 3.2 °F 24% 30.28 in 10.0 mi South 5.8 mph - N/A   Clear
5:40 AM 32.0 °F 26.4 °F 3.2 °F 30% 30.30 in 10.0 mi South 5.8 mph - N/A   Clear
6:44 AM 30.2 °F 25.4 °F 5.0 °F 34% 30.32 in 10.0 mi South 4.6 mph - N/A   Partly Cloudy
7:42 AM 33.8 °F 27.7 °F 5.0 °F 30% 30.35 in 10.0 mi SSW 6.9 mph - N/A   Scattered Clouds
8:42 AM 46.4 °F 43.5 °F 12.2 °F 25% 30.38 in 10.0 mi South 5.8 mph - N/A   Scattered Clouds
10:42 AM 64.4 °F - 14.0 °F 14% 30.40 in 10.0 mi North 11.5 mph - N/A   Scattered Clouds
11:42 AM 66.2 °F - 14.0 °F 13% 30.38 in 10.0 mi NNE 6.9 mph - N/A   Mostly Cloudy
12:42 PM 68.0 °F - 14.0 °F 12% 30.35 in 10.0 mi North 8.1 mph - N/A   Mostly Cloudy
1:40 PM 71.6 °F - 14.0 °F 11% 30.32 in 10.0 mi North 11.5 mph - N/A   Mostly Cloudy
2:40 PM 71.6 °F - 14.0 °F 11% 30.30 in 10.0 mi ENE 11.5 mph - N/A   Mostly Cloudy
3:44 PM 71.6 °F - 14.0 °F 11% 30.28 in 10.0 mi East 6.9 mph - N/A   Mostly Cloudy
4:44 PM 71.6 °F - 14.0 °F 11% 30.26 in 10.0 mi NE 5.8 mph - N/A   Mostly Cloudy
5:41 PM 69.8 °F - 14.0 °F 12% 30.26 in 10.0 mi NE 8.1 mph - N/A   Mostly Cloudy
6:44 PM 66.2 °F - 10.4 °F 11% 30.28 in 10.0 mi ENE 10.4 mph - N/A   Mostly Cloudy
7:44 PM 62.6 °F - 8.6 °F 12% 30.28 in 10.0 mi ENE 8.1 mph - N/A   Mostly Cloudy
8:46 PM 57.2 °F - 5.0 °F 12% 30.30 in 10.0 mi East 5.8 mph - N/A   Mostly Cloudy
10:12 PM 55.4 °F - 3.2 °F 12% 30.34 in 10.0 mi ENE 6.9 mph - N/A   Scattered Clouds
10:44 PM 51.8 °F - 3.2 °F 14% 30.34 in 10.0 mi North 4.6 mph - N/A   Scattered Clouds
11:43 PM 50.0 °F - 3.2 °F 15% 30.32 in 10.0 mi North 4.6 mph - N/A   Scattered Clouds